• In United Kingdom
  • List of Countries
  • For 7 days
  • Water Temperature
  • Satellite Maps
  • Weather Map
  • Weather Widgets
  • user-avatar
    Login

    Hourly Weather Newcastle

    Today, 29 May, Monday

    Time Temperature Precipitation Wind Pressure Humidity
    00:00 +14°C° 0 mm 4 mps 759 mmHg 67%
    01:00 +14°C° 0 mm 5 mps 760 mmHg 66%
    02:00 +13°C° 0 mm 5 mps 760 mmHg 67%
    03:00 +12°C° 0 mm 5 mps 760 mmHg 68%
    04:00 +11°C° 0 mm 4 mps 760 mmHg 73%
    05:00 +9°C° 0 mm 5 mps 761 mmHg 72%
    06:00 +9°C° 0 mm 5 mps 762 mmHg 72%
    07:00 +9°C° 0 mm 5 mps 762 mmHg 72%
    08:00 +10°C° 0 mm 5 mps 762 mmHg 65%
    09:00 +13°C° 0 mm 5 mps 763 mmHg 57%
    10:00 +14°C° 0 mm 6 mps 763 mmHg 50%
    11:00 +15°C° 0 mm 5 mps 763 mmHg 44%
    12:00 +16°C° 0 mm 5 mps 763 mmHg 39%
    13:00 +18°C° 0 mm 4 mps 763 mmHg 33%
    14:00 +17°C° 0 mm 4 mps 763 mmHg 38%
    15:00 +17°C° 0 mm 3 mps 763 mmHg 44%
    16:00 +16°C° 0 mm 2 mps 763 mmHg 49%
    17:00 +14°C° 0 mm 2 mps 764 mmHg 55%
    18:00 +10°C° 0 mm 2 mps 765 mmHg 61%
    19:00 +8°C° 0 mm 2 mps 765 mmHg 67%
    20:00 +8°C° 0 mm 2 mps 766 mmHg 64%
    21:00 +8°C° 0 mm 2 mps 766 mmHg 61%
    22:00 +8°C° 0 mm 2 mps 766 mmHg 59%
    23:00 +8°C° 0 mm 3 mps 766 mmHg 61%

    Tomorrow, 30 May, Tuesday

    Time Temperature Precipitation Wind Pressure Humidity
    00:00 +7°C° 0 mm 3 mps 766 mmHg 63%
    01:00 +7°C° 0 mm 3 mps 766 mmHg 66%
    02:00 +5°C° 0 mm 3 mps 766 mmHg 68%
    03:00 +5°C° 0 mm 3 mps 766 mmHg 70%
    04:00 +4°C° 0 mm 3 mps 766 mmHg 71%
    05:00 +4°C° 0 mm 3 mps 767 mmHg 73%
    06:00 +4°C° 0 mm 3 mps 767 mmHg 74%
    07:00 +4°C° 0 mm 3 mps 767 mmHg 76%
    08:00 +7°C° 0 mm 3 mps 767 mmHg 67%
    09:00 +10°C° 0 mm 3 mps 767 mmHg 58%
    10:00 +12°C° 0 mm 3 mps 767 mmHg 49%
    11:00 +14°C° 0 mm 3 mps 766 mmHg 45%
    12:00 +16°C° 0 mm 3 mps 766 mmHg 40%
    13:00 +18°C° 0 mm 3 mps 765 mmHg 36%
    14:00 +17°C° 0 mm 2 mps 765 mmHg 41%
    15:00 +16°C° 0 mm 2 mps 765 mmHg 46%
    16:00 +16°C° 0 mm 2 mps 765 mmHg 51%
    17:00 +14°C° 0 mm 2 mps 765 mmHg 53%
    18:00 +12°C° 0 mm 3 mps 766 mmHg 55%
    19:00 +10°C° 0 mm 3 mps 766 mmHg 58%
    20:00 +10°C° 0 mm 3 mps 766 mmHg 61%
    21:00 +10°C° 0 mm 3 mps 766 mmHg 64%
    22:00 +9°C° 0 mm 3 mps 767 mmHg 67%
    23:00 +9°C° 0 mm 3 mps 767 mmHg 70%

    Day after tomorrow, 31 May, Wednesday

    Time Temperature Precipitation Wind Pressure Humidity
    00:00 +8°C° 0 mm 4 mps 767 mmHg 74%
    01:00 +7°C° 0 mm 4 mps 767 mmHg 77%
    02:00 +7°C° 0 mm 4 mps 766 mmHg 76%
    03:00 +8°C° 0 mm 4 mps 766 mmHg 76%
    04:00 +8°C° 0 mm 4 mps 766 mmHg 75%
    05:00 +8°C° 0.2 mm 4 mps 767 mmHg 79%
    06:00 +7°C° 0.2 mm 5 mps 767 mmHg 83%
    07:00 +7°C° 0.2 mm 5 mps 768 mmHg 87%
    08:00 +8°C° 0.4 mm 5 mps 768 mmHg 83%
    09:00 +10°C° 0.4 mm 5 mps 768 mmHg 80%
    10:00 +11°C° 0.4 mm 6 mps 769 mmHg 76%
    11:00 +13°C° 0.1 mm 6 mps 768 mmHg 69%
    12:00 +13°C° 0.1 mm 6 mps 768 mmHg 62%
    13:00 +14°C° 0.1 mm 6 mps 768 mmHg 55%
    14:00 +14°C° 0.1 mm 6 mps 768 mmHg 54%
    15:00 +14°C° 0.1 mm 6 mps 768 mmHg 54%
    16:00 +14°C° 0.1 mm 6 mps 768 mmHg 53%
    17:00 +11°C° 0.1 mm 6 mps 769 mmHg 59%
    18:00 +9°C° 0.1 mm 6 mps 770 mmHg 66%
    19:00 +8°C° 0.1 mm 6 mps 771 mmHg 72%
    20:00 +8°C° 0.2 mm 6 mps 771 mmHg 72%
    21:00 +8°C° 0.2 mm 6 mps 772 mmHg 71%
    22:00 +8°C° 0.2 mm 6 mps 772 mmHg 71%
    23:00 +8°C° 0.2 mm 6 mps 772 mmHg 71%

    1 June, Thursday

    Time Temperature Precipitation Wind Pressure Humidity
    00:00 +8°C° 0.2 mm 6 mps 772 mmHg 70%
    01:00 +8°C° 0.2 mm 6 mps 772 mmHg 70%
    02:00 +7°C° 0.2 mm 6 mps 772 mmHg 70%
    03:00 +7°C° 0.2 mm 6 mps 772 mmHg 71%
    04:00 +7°C° 0.2 mm 6 mps 772 mmHg 71%
    05:00 +5°C° 0.2 mm 6 mps 772 mmHg 72%
    06:00 +5°C° 0.2 mm 6 mps 773 mmHg 72%
    07:00 +5°C° 0.2 mm 6 mps 773 mmHg 72%
    08:00 +7°C° 0.2 mm 6 mps 773 mmHg 67%
    09:00 +9°C° 0.2 mm 6 mps 773 mmHg 62%
    10:00 +11°C° 0.2 mm 6 mps 773 mmHg 57%
    11:00 +13°C° 0.1 mm 6 mps 773 mmHg 56%
    12:00 +14°C° 0.1 mm 6 mps 772 mmHg 54%
    13:00 +16°C° 0.1 mm 6 mps 772 mmHg 53%
    14:00 +15°C° 0.1 mm 5 mps 772 mmHg 55%
    15:00 +15°C° 0.1 mm 5 mps 772 mmHg 57%
    16:00 +14°C° 0.1 mm 5 mps 772 mmHg 59%
    17:00 +12°C° 0.1 mm 5 mps 772 mmHg 66%
    18:00 +10°C° 0.1 mm 5 mps 773 mmHg 73%
    19:00 +8°C° 0.1 mm 5 mps 773 mmHg 81%
    20:00 +8°C° 0.1 mm 5 mps 773 mmHg 81%
    21:00 +8°C° 0.1 mm 6 mps 773 mmHg 81%
    22:00 +8°C° 0.1 mm 6 mps 774 mmHg 81%
    23:00 +8°C° 0.1 mm 6 mps 773 mmHg 82%

    2 June, Friday

    Time Temperature Precipitation Wind Pressure Humidity
    00:00 +8°C° 0.1 mm 6 mps 773 mmHg 84%
    01:00 +7°C° 0.1 mm 6 mps 773 mmHg 85%
    02:00 +7°C° 0.1 mm 6 mps 773 mmHg 84%
    03:00 +7°C° 0.1 mm 6 mps 773 mmHg 83%
    04:00 +7°C° 0.1 mm 6 mps 772 mmHg 82%
    05:00 +7°C° 0.2 mm 6 mps 773 mmHg 81%
    06:00 +7°C° 0.2 mm 6 mps 773 mmHg 81%
    07:00 +7°C° 0.2 mm 6 mps 773 mmHg 80%
    08:00 +9°C° 0.3 mm 6 mps 773 mmHg 76%
    09:00 +10°C° 0.3 mm 6 mps 774 mmHg 71%
    10:00 +13°C° 0.3 mm 6 mps 774 mmHg 66%
    11:00 +14°C° 0.3 mm 6 mps 773 mmHg 66%
    12:00 +15°C° 0.3 mm 6 mps 773 mmHg 65%
    13:00 +16°C° 0.3 mm 6 mps 772 mmHg 65%
    14:00 +16°C° 0.3 mm 6 mps 772 mmHg 69%
    15:00 +15°C° 0.3 mm 6 mps 772 mmHg 72%
    16:00 +15°C° 0.3 mm 6 mps 772 mmHg 76%
    17:00 +14°C° 0.4 mm 6 mps 772 mmHg 79%
    18:00 +13°C° 0.4 mm 6 mps 773 mmHg 83%
    19:00 +13°C° 0.4 mm 6 mps 773 mmHg 87%
    20:00 +12°C° 0.4 mm 5 mps 773 mmHg 88%
    21:00 +12°C° 0.4 mm 5 mps 773 mmHg 90%
    22:00 +12°C° 0.4 mm 5 mps 773 mmHg 92%
    23:00 +12°C° 0.4 mm 5 mps 773 mmHg 91%

    3 June, Saturday

    Time Temperature Precipitation Wind Pressure Humidity
    00:00 +12°C° 0.4 mm 5 mps 773 mmHg 91%
    01:00 +12°C° 0.4 mm 5 mps 772 mmHg 91%
    02:00 +12°C° 0.4 mm 5 mps 772 mmHg 91%
    03:00 +12°C° 0.4 mm 5 mps 772 mmHg 91%
    04:00 +10°C° 0.4 mm 5 mps 772 mmHg 91%
    05:00 +10°C° 0.3 mm 5 mps 772 mmHg 91%
    06:00 +10°C° 0.3 mm 5 mps 772 mmHg 91%
    07:00 +10°C° 0.3 mm 4 mps 773 mmHg 91%
    08:00 +11°C° 0.4 mm 4 mps 773 mmHg 87%
    09:00 +12°C° 0.4 mm 4 mps 773 mmHg 83%
    10:00 +13°C° 0.4 mm 4 mps 773 mmHg 79%
    11:00 +14°C° 0.3 mm 4 mps 772 mmHg 76%
    12:00 +15°C° 0.3 mm 5 mps 772 mmHg 73%
    13:00 +16°C° 0.3 mm 5 mps 771 mmHg 70%
    14:00 +16°C° 0.3 mm 5 mps 771 mmHg 71%
    15:00 +17°C° 0.3 mm 4 mps 771 mmHg 72%
    16:00 +17°C° 0.3 mm 4 mps 771 mmHg 74%
    17:00 +14°C° 0.2 mm 4 mps 771 mmHg 80%
    18:00 +12°C° 0.2 mm 4 mps 771 mmHg 86%
    19:00 +11°C° 0.2 mm 4 mps 771 mmHg 93%
    20:00 +10°C° 0.1 mm 3 mps 771 mmHg 94%
    21:00 +10°C° 0.1 mm 3 mps 771 mmHg 95%
    22:00 +10°C° 0.1 mm 3 mps 771 mmHg 96%
    23:00 +10°C° 0.1 mm 3 mps 771 mmHg 96%
    Show more